GW3939 Weather Reports


time (UTC)temp
F
wind
direction
speed
knots
gust
knots
rain 1hr
in
rain 24hr
in
rain mn
in
humidity
%
barometer
mb
20260504000543 70 236 0.0 4.3 0.00 0.02 0.02 38 1003.2
20260504000028 70 208 0.9 4.3 0.00 0.02 0.02 37 1003.1
20260503235557 70 261 0.0 3.5 0.00 0.02 0.02 38 1003.2
20260503235505 70 252 0.0 3.5 0.00 0.02 0.02 38 1003.2
20260503235039 71 242 0.0 2.6 0.00 0.02 0.02 38 1003.1
20260503234558 71 258 0.0 5.2 0.00 0.02 0.02 39 1003.1
20260503234041 71 231 0.0 5.2 0.00 0.02 0.02 39 1003.0
20260503233600 70 266 1.7 4.3 0.00 0.02 0.02 37 1003.1
20260503233036 71 288 0.9 3.5 0.00 0.02 0.02 38 1003.2
20260503232518 70 314 0.9 7.0 0.00 0.02 0.02 38 1003.2
20260503232053 70 290 0.0 7.0 0.00 0.02 0.02 39 1003.2
20260503231535 70 278 0.9 7.8 0.00 0.02 0.02 39 1003.3
20260503231018 71 237 0.9 7.0 0.00 0.02 0.02 38 1003.3
20260503230552 71 276 1.7 6.1 0.00 0.02 0.02 39 1003.4
20260503230012 71 272 0.9 2.6 0.00 0.02 0.02 38 1003.4
20260503225547 71 273 0.9 3.5 0.00 0.02 0.02 40 1003.5
20260503225029 70 264 0.0 3.5 0.00 0.02 0.02 40 1003.5
20260503224507 70 267 1.7 5.2 0.00 0.02 0.02 39 1003.5
20260503224031 70 207 1.7 5.2 0.00 0.02 0.02 40 1003.5
20260503223512 71 267 0.9 5.2 0.00 0.02 0.02 41 1003.5
20260503223101 70 285 0.0 7.8 0.00 0.02 0.02 40 1003.5
20260503222527 70 268 1.7 7.8 0.00 0.02 0.02 39 1003.5
20260503222005 70 281 1.7 7.0 0.00 0.02 0.02 40 1003.5
20260503221548 70 257 1.7 7.0 0.00 0.02 0.02 41 1003.5
20260503221026 70 229 0.9 8.7 0.00 0.02 0.02 41 1003.5
20260503220558 70 255 2.6 8.7 0.00 0.02 0.02 41 1003.5
20260503220040 70 274 1.7 7.0 0.00 0.02 0.02 42 1003.5
20260503215547 69 255 1.7 7.0 0.00 0.02 0.02 41 1003.5
20260503215027 69 234 0.9 7.8 0.00 0.02 0.02 40 1003.6
20260503214517 69 230 2.6 7.8 0.00 0.02 0.02 41 1003.8
20260503214043 69 278 1.7 7.0 0.00 0.02 0.02 41 1003.6
20260503213525 69 221 1.7 7.0 0.00 0.02 0.02 40 1003.7
20260503213003 69 134 1.7 7.0 0.00 0.02 0.02 42 1003.7
20260503212544 69 231 0.9 7.8 0.00 0.02 0.02 42 1003.7
20260503212028 69 288 2.6 7.8 0.00 0.02 0.02 41 1003.9
20260503211557 69 290 0.0 7.0 0.00 0.02 0.02 42 1003.8
20260503211039 68 260 2.6 7.0 0.00 0.02 0.02 41 1003.9
20260503210557 69 234 1.7 5.2 0.00 0.02 0.02 43 1004.0
20260503210040 68 273 1.7 5.2 0.00 0.02 0.02 42 1003.9
20260503205558 68 237 1.7 10.4 0.00 0.02 0.02 43 1004.1
20260503205036 68 302 1.7 12.2 0.00 0.02 0.02 43 1004.3
20260503204523 68 144 4.3 12.2 0.00 0.02 0.02 43 1004.3
20260503204035 68 203 1.7 7.8 0.00 0.02 0.02 42 1004.3
20260503203516 68 274 1.7 9.6 0.00 0.02 0.02 42 1004.4
20260503203049 67 226 1.7 9.6 0.00 0.02 0.02 45 1004.6
20260503202516 67 282 1.7 7.0 0.00 0.02 0.02 43 1004.8
20260503202049 67 245 2.6 7.0 0.00 0.02 0.02 42 1004.7
20260503201532 67 297 1.7 13.0 0.00 0.02 0.02 43 1004.8
20260503201009 67 253 4.3 13.0 0.00 0.02 0.02 42 1004.9
20260503200547 66 278 3.5 12.2 0.00 0.02 0.02 45 1005.0
20260503200029 66 207 3.5 12.2 0.00 0.02 0.02 43 1005.0
20260503195510 67 229 4.3 11.3 0.00 0.02 0.02 43 1005.0
20260503195047 67 251 1.7 7.0 0.00 0.02 0.02 43 1005.1
20260503194534 67 226 1.7 7.8 0.00 0.02 0.02 46 1005.2
20260503194008 67 241 3.5 7.8 0.00 0.02 0.02 44 1005.4
20260503193542 66 266 0.9 7.8 0.00 0.02 0.02 42 1005.5
20260503193020 66 309 1.7 8.7 0.00 0.02 0.02 45 1005.6
20260503192541 66 128 3.5 8.7 0.00 0.02 0.02 42 1005.5
20260503192023 67 234 1.7 7.8 0.00 0.02 0.02 44 1005.5
20260503191612 66 230 1.7 16.5 0.00 0.02 0.02 45 1005.6
20260503191502 66 240 1.7 16.5 0.00 0.02 0.02 44 1005.6
20260503191046 66 256 3.5 16.5 0.00 0.02 0.02 42 1005.6
20260503190519 66 219 2.6 9.6 0.00 0.02 0.02 45 1005.7
20260503190059 65 283 1.7 10.4 0.00 0.02 0.02 45 1005.7
20260503185533 65 229 3.5 18.2 0.00 0.02 0.02 43 1005.8
20260503185011 64 130 4.3 18.2 0.00 0.02 0.02 44 1005.8
20260503184533 64 151 2.6 10.4 0.00 0.02 0.02 44 1005.9
20260503184016 64 282 2.6 13.0 0.00 0.02 0.02 44 1006.0
20260503183551 64 218 5.2 16.5 0.00 0.02 0.02 44 1006.0
20260503183010 64 229 6.1 16.5 0.00 0.02 0.02 44 1005.9
20260503182543 64 245 2.6 13.9 0.00 0.02 0.02 46 1006.1
20260503182023 63 239 2.6 10.4 0.00 0.02 0.02 46 1006.2
20260503181608 63 267 4.3 10.4 0.00 0.02 0.02 46 1006.2
20260503181504 63 226 3.5 12.2 0.00 0.02 0.02 46 1006.1
20260503181042 63 226 4.3 14.8 0.00 0.02 0.02 46 1006.2
20260503180523 63 224 6.1 18.2 0.00 0.02 0.02 46 1006.3
20260503180057 63 212 4.3 18.2 0.00 0.02 0.02 47 1006.2
20260503175540 62 283 2.6 11.3 0.00 0.02 0.02 50 1006.4
20260503175018 61 273 4.3 13.0 0.00 0.02 0.02 51 1006.5
20260503174601 61 214 3.5 8.7 0.00 0.02 0.02 50 1006.5
20260503174035 61 243 3.5 13.0 0.00 0.02 0.02 50 1006.8
20260503173517 61 271 6.1 16.5 0.00 0.02 0.02 50 1006.9
20260503173054 61 257 3.5 15.6 0.00 0.02 0.02 50 1006.9
20260503172536 61 275 4.3 15.6 0.00 0.02 0.02 50 1006.9
20260503172003 61 124 3.5 13.9 0.00 0.02 0.02 49 1007.1
20260503171543 60 278 2.6 13.9 0.00 0.02 0.02 50 1007.1
20260503171027 60 191 6.1 15.6 0.00 0.02 0.02 49 1007.3
20260503170600 60 299 3.5 15.6 0.00 0.02 0.02 50 1007.3
20260503150516 54 187 4.3 11.3 0.01 0.02 0.02 69 1008.3
20260503131023 51 217 2.6 7.8 0.00 0.00 0.00 64 1010.6
20260503130550 51 240 2.6 6.1 0.00 0.00 0.00 64 1010.7
20260503110542 48 175 0.9 5.2 0.00 0.00 0.00 56 1010.8
20260503081521 47 227 0.9 7.0 0.00 0.00 0.00 53 1012.2
20260503081056 47 290 2.6 7.0 0.00 0.00 0.00 53 1012.1
20260503080538 47 220 0.9 4.3 0.00 0.00 0.00 54 1012.2
20260503072524 47 217 2.6 6.1 0.00 0.00 0.00 53 1012.4
20260503072046 47 238 0.9 5.2 0.00 0.00 0.00 53 1012.4
20260503071522 47 238 0.9 7.0 0.00 0.00 0.00 53 1012.4
20260503071058 47 342 1.7 7.0 0.00 0.00 0.00 54 1012.4
20260503070540 46 205 0.9 5.2 0.00 0.00 0.00 54 1012.5
20260503055013 47 240 0.0 4.3 0.00 0.00 0.00 51 1013.2
20260503054551 48 240 0.9 4.3 0.00 0.00 0.00 51 1013.2
20260503054034 48 266 0.9 4.3 0.00 0.00 0.00 50 1013.1
20260503053510 48 217 0.9 4.3 0.00 0.00 0.00 50 1013.2
20260503053047 48 211 0.9 4.3 0.00 0.00 0.00 49 1013.2
20260503052524 48 236 0.0 4.3 0.00 0.00 0.00 49 1013.2
20260503052046 48 219 0.9 3.5 0.00 0.00 0.00 48 1013.3
20260503051524 48 225 0.9 3.5 0.00 0.00 0.00 49 1013.4
20260503051100 48 241 0.0 3.5 0.00 0.00 0.00 49 1013.5
20260503051002 48 226 0.0 4.3 0.00 0.00 0.00 49 1013.5
20260503050540 48 222 0.9 4.3 0.00 0.00 0.00 48 1013.5
20260503050016 48 234 0.9 5.2 0.00 0.00 0.00 48 1013.5
20260503045549 48 214 1.7 4.3 0.00 0.00 0.00 48 1013.5
20260503045027 48 215 0.0 5.2 0.00 0.00 0.00 48 1013.5
20260503044506 48 222 1.7 5.2 0.00 0.00 0.00 47 1013.5
20260503044032 49 236 0.0 4.3 0.00 0.00 0.00 47 1013.5
20260503043506 49 252 0.0 3.5 0.00 0.00 0.00 47 1013.5
20260503043050 49 217 0.9 4.3 0.00 0.00 0.00 47 1013.5
20260503042528 49 229 0.9 4.3 0.00 0.00 0.00 47 1013.6
20260503042100 49 251 0.0 4.3 0.00 0.00 0.00 46 1013.6
20260503042008 49 221 0.0 4.3 0.00 0.00 0.00 46 1013.6
20260503041602 49 222 0.0 4.3 0.00 0.00 0.00 46 1013.6
20260503041023 49 236 0.0 4.3 0.00 0.00 0.00 47 1013.7
20260503040559 49 230 0.9 5.2 0.00 0.00 0.00 46 1013.7
20260503040504 49 176 0.9 5.2 0.00 0.00 0.00 46 1013.7
20260503040049 49 150 0.9 6.1 0.00 0.00 0.00 46 1013.8
20260503035516 49 239 1.7 6.1 0.00 0.00 0.00 46 1013.9
20260503035040 49 235 0.0 5.2 0.00 0.00 0.00 46 1013.9
20260503034516 49 167 0.9 5.2 0.00 0.00 0.00 45 1014.1
20260503034039 49 230 0.9 4.3 0.00 0.00 0.00 45 1014.0
20260503033515 49 231 0.9 4.3 0.00 0.00 0.00 45 1014.0
20260503033106 49 233 0.0 1.7 0.00 0.00 0.00 46 1014.0
20260503032535 49 213 0.0 2.6 0.00 0.00 0.00 45 1014.1
20260503032025 50 246 0.0 3.5 0.00 0.00 0.00 45 1014.1
20260503031600 50 205 0.0 2.6 0.00 0.00 0.00 45 1014.2
20260503031036 50 221 0.0 2.6 0.00 0.00 0.00 44 1014.2
20260503030517 50 256 0.0 2.6 0.00 0.00 0.00 44 1014.2
20260503030100 50 174 0.0 3.5 0.00 0.00 0.00 44 1014.3
20260503025510 50 222 0.9 3.5 0.00 0.00 0.00 44 1014.3
20260503025045 50 215 0.0 2.6 0.00 0.00 0.00 45 1014.4
20260503024536 50 195 0.0 2.6 0.00 0.00 0.00 44 1014.3
20260503024010 50 219 0.0 1.7 0.00 0.00 0.00 44 1014.4
20260503023545 50 210 0.0 2.6 0.00 0.00 0.00 44 1014.4
20260503023023 50 236 0.0 2.6 0.00 0.00 0.00 44 1014.3
20260503022545 50 243 0.0 2.6 0.00 0.00 0.00 44 1014.3
20260503022009 50 219 0.0 2.6 0.00 0.00 0.00 44 1014.4
20260503021550 50 186 0.0 2.6 0.00 0.00 0.00 44 1014.3
20260503021010 50 238 0.0 1.7 0.00 0.00 0.00 44 1014.3
20260503020540 50 217 0.0 1.7 0.00 0.00 0.00 44 1014.3
20260503020018 50 228 0.0 0.9 0.00 0.00 0.00 43 1014.3
20260503015542 50 233 0.0 0.9 0.00 0.00 0.00 43 1014.3
20260503015014 51 233 0.0 0.9 0.00 0.00 0.00 42 1014.3
20260503014552 51 221 0.0 0.9 0.00 0.00 0.00 43 1014.3
20260503014009 51 224 0.0 2.6 0.00 0.00 0.00 42 1014.2
20260503013533 51 224 0.0 2.6 0.00 0.00 0.00 42 1014.2
20260503013016 52 243 0.0 1.7 0.00 0.00 0.00 42 1014.1
20260503012550 52 231 0.0 1.7 0.00 0.00 0.00 41 1014.2
20260503012028 52 226 0.0 0.9 0.00 0.00 0.00 41 1014.2
20260503011513 52 217 0.0 0.9 0.00 0.00 0.00 40 1014.2
20260503011047 53 167 0.0 0.0 0.00 0.00 0.00 40 1014.1
20260503010512 53 162 0.0 0.9 0.00 0.00 0.00 40 1014.2
20260503010044 53 162 0.0 0.9 0.00 0.00 0.00 40 1014.1
20260503005526 54 230 0.0 0.9 0.00 0.00 0.00 39 1014.1
20260503005055 54 229 0.0 0.9 0.00 0.00 0.00 39 1014.0
20260503004529 54 229 0.0 0.9 0.00 0.00 0.00 38 1014.1
20260503004009 55 214 0.0 1.7 0.00 0.00 0.00 38 1014.1
20260503003532 55 273 0.0 1.7 0.00 0.00 0.00 39 1014.2
20260503003050 55 224 0.0 1.7 0.00 0.00 0.00 38 1014.2
20260503002511 56 284 0.0 2.6 0.00 0.00 0.00 37 1014.2
20260503002049 57 260 0.9 2.6 0.00 0.00 0.00 36 1014.2
20260503001508 57 272 0.0 2.6 0.00 0.00 0.00 36 1014.4
20260503001029 57 286 0.0 2.6 0.00 0.00 0.00 36 1014.4